| time (UTC) | temp F | wind direction | speed MPH | gust MPH | rain 1hr in | rain 24hr in | rain mn in | humidity % | barometer mb |
| 20260510115954 | 55 | 94 | 0.0 | 1.0 | 0.00 | 0.00 | 0.00 | 96 | 1012.8 |
| 20260510114451 | 54 | 94 | 0.0 | 2.0 | 0.00 | 0.00 | 0.00 | 96 | 1012.5 |
| 20260510112951 | 53 | 88 | 0.0 | 2.0 | 0.00 | 0.00 | 0.00 | 96 | 1012.3 |
| 20260510111451 | 52 | 254 | 0.0 | 1.0 | 0.00 | 0.00 | 0.00 | 95 | 1012.2 |
| 20260510105955 | 52 | 66 | 1.0 | 4.0 | 0.00 | 0.00 | 0.00 | 95 | 1012.1 |
| 20260510104451 | 51 | 60 | 2.0 | 6.0 | 0.00 | 0.00 | 0.00 | 95 | 1012.2 |
| 20260510102950 | 51 | 96 | 1.0 | 2.0 | 0.00 | 0.00 | 0.00 | 95 | 1011.8 |
| 20260510101451 | 50 | 39 | 0.0 | 1.0 | 0.00 | 0.00 | 0.00 | 95 | 1011.7 |
| 20260510094451 | 50 | 39 | 0.0 | 1.0 | 0.00 | 0.00 | 0.00 | 95 | 1011.4 |
| 20260510092951 | 49 | 39 | 0.0 | 1.0 | 0.00 | 0.00 | 0.00 | 95 | 1011.3 |
| 20260510091451 | 49 | 39 | 0.0 | 0.0 | 0.00 | 0.00 | 0.00 | 94 | 1011.2 |
| 20260510085955 | 50 | 39 | 0.0 | 1.0 | 0.00 | 0.00 | 0.00 | 94 | 1011.2 |
| 20260510082951 | 51 | 164 | 2.0 | 6.0 | 0.00 | 0.00 | 0.00 | 95 | 1011.0 |
| 20260510081451 | 51 | 154 | 3.0 | 12.0 | 0.00 | 0.00 | 0.00 | 95 | 1010.9 |
| 20260510075955 | 50 | 95 | 0.0 | 1.0 | 0.00 | 0.00 | 0.00 | 94 | 1010.5 |
| 20260510072951 | 50 | 151 | 0.0 | 0.0 | 0.00 | 0.00 | 0.00 | 93 | 1010.5 |
| 20260510071451 | 51 | 151 | 0.0 | 1.0 | 0.00 | 0.00 | 0.00 | 94 | 1010.4 |
| 20260510065953 | 51 | 117 | 0.0 | 1.0 | 0.00 | 0.00 | 0.00 | 94 | 1010.4 |
| 20260510064451 | 51 | 105 | 0.0 | 2.0 | 0.00 | 0.00 | 0.00 | 94 | 1010.2 |
| 20260510052952 | 52 | 212 | 0.0 | 0.0 | 0.00 | 0.00 | 0.00 | 93 | 1010.5 |
| 20260510051453 | 52 | 188 | 0.0 | 0.0 | 0.00 | 0.00 | 0.00 | 93 | 1010.6 |
| 20260510045954 | 52 | 147 | 0.0 | 1.0 | 0.00 | 0.00 | 0.00 | 93 | 1010.6 |
| 20260510044451 | 53 | 181 | 2.0 | 4.0 | 0.00 | 0.00 | 0.00 | 93 | 1010.5 |
| 20260510042951 | 52 | 174 | 1.0 | 4.0 | 0.00 | 0.00 | 0.00 | 93 | 1010.7 |
| 20260510041450 | 52 | 161 | 0.0 | 3.0 | 0.00 | 0.00 | 0.00 | 93 | 1010.7 |
| 20260510034451 | 52 | 178 | 0.0 | 0.0 | 0.00 | 0.00 | 0.00 | 92 | 1010.9 |
| 20260510032951 | 52 | 166 | 0.0 | 0.0 | 0.00 | 0.00 | 0.00 | 92 | 1010.8 |
| 20260510031451 | 53 | 153 | 0.0 | 0.0 | 0.00 | 0.00 | 0.00 | 92 | 1010.7 |
| 20260510024452 | 53 | 170 | 0.0 | 1.0 | 0.00 | 0.00 | 0.00 | 91 | 1010.3 |
| 20260510022951 | 53 | 166 | 0.0 | 1.0 | 0.00 | 0.00 | 0.00 | 91 | 1010.4 |
| 20260510021451 | 53 | 151 | 0.0 | 2.0 | 0.00 | 0.00 | 0.00 | 91 | 1010.5 |
| 20260510014451 | 54 | 199 | 0.0 | 2.0 | 0.00 | 0.00 | 0.00 | 91 | 1010.2 |
| 20260510012951 | 54 | 184 | 1.0 | 3.0 | 0.00 | 0.00 | 0.00 | 90 | 1010.1 |
| 20260510011451 | 54 | 156 | 0.0 | 2.0 | 0.00 | 0.00 | 0.00 | 90 | 1010.0 |
| 20260510005954 | 54 | 190 | 0.0 | 2.0 | 0.00 | 0.00 | 0.00 | 90 | 1009.9 |
| 20260510004451 | 54 | 161 | 1.0 | 3.0 | 0.00 | 0.00 | 0.00 | 89 | 1009.7 |
| 20260510002951 | 55 | 206 | 0.0 | 2.0 | 0.00 | 0.00 | 0.00 | 89 | 1009.7 |
| 20260510001452 | 55 | 207 | 0.0 | 1.0 | 0.00 | 0.00 | 0.00 | 87 | 1009.6 |
| 20260509235955 | 56 | 195 | 0.0 | 2.0 | 0.00 | 0.00 | 0.00 | 86 | 1009.6 |
| 20260509234451 | 57 | 193 | 1.0 | 3.0 | 0.00 | 0.00 | 0.00 | 85 | 1009.8 |
| 20260509232951 | 58 | 177 | 1.0 | 3.0 | 0.00 | 0.00 | 0.00 | 84 | 1009.6 |
| 20260509231452 | 58 | 169 | 1.0 | 3.0 | 0.00 | 0.00 | 0.00 | 82 | 1009.6 |
| 20260509224451 | 59 | 182 | 2.0 | 5.0 | 0.00 | 0.00 | 0.00 | 80 | 1009.4 |
| 20260509222951 | 60 | 184 | 1.0 | 5.0 | 0.00 | 0.00 | 0.00 | 81 | 1009.7 |
| 20260509221451 | 59 | 153 | 1.0 | 4.0 | 0.00 | 0.00 | 0.00 | 81 | 1009.7 |
| 20260509214449 | 59 | 158 | 1.0 | 3.0 | 0.00 | 0.00 | 0.00 | 82 | 1009.5 |
| 20260509212951 | 58 | 117 | 2.0 | 4.0 | 0.00 | 0.00 | 0.00 | 82 | 1009.7 |
| 20260509211452 | 58 | 115 | 2.0 | 5.0 | 0.00 | 0.00 | 0.00 | 82 | 1009.5 |
| 20260509205955 | 58 | 83 | 4.0 | 7.0 | 0.00 | 0.00 | 0.00 | 82 | 1009.7 |
| 20260509204451 | 59 | 82 | 2.0 | 6.0 | 0.00 | 0.00 | 0.00 | 80 | 1009.7 |
| 20260509202951 | 59 | 121 | 1.0 | 3.0 | 0.00 | 0.00 | 0.00 | 80 | 1009.6 |
| 20260509201451 | 60 | 82 | 1.0 | 3.0 | 0.00 | 0.00 | 0.00 | 77 | 1009.8 |
| 20260509195953 | 60 | 84 | 2.0 | 5.0 | 0.00 | 0.00 | 0.00 | 76 | 1009.7 |
| 20260509194451 | 59 | 127 | 3.0 | 7.0 | 0.00 | 0.00 | 0.00 | 79 | 1009.7 |
| 20260509192951 | 58 | 69 | 4.0 | 9.0 | 0.00 | 0.00 | 0.00 | 81 | 1009.9 |
| 20260509191451 | 57 | 86 | 5.0 | 10.0 | 0.00 | 0.00 | 0.00 | 82 | 1010.2 |
| 20260509185955 | 57 | 72 | 4.0 | 6.0 | 0.00 | 0.00 | 0.00 | 83 | 1010.4 |
| 20260509184451 | 56 | 75 | 5.0 | 9.0 | 0.00 | 0.00 | 0.00 | 82 | 1010.8 |
| 20260509182951 | 57 | 43 | 4.0 | 9.0 | 0.00 | 0.00 | 0.00 | 78 | 1011.0 |
| 20260509181451 | 58 | 56 | 5.0 | 11.0 | 0.00 | 0.00 | 0.00 | 77 | 1010.9 |
| 20260509175954 | 58 | 73 | 5.0 | 10.0 | 0.00 | 0.00 | 0.00 | 78 | 1011.1 |
| 20260509174451 | 58 | 72 | 3.0 | 7.0 | 0.00 | 0.00 | 0.00 | 80 | 1011.1 |
| 20260509172951 | 58 | 51 | 2.0 | 8.0 | 0.00 | 0.00 | 0.00 | 81 | 1011.1 |
| 20260509171451 | 59 | 73 | 1.0 | 7.0 | 0.00 | 0.00 | 0.00 | 79 | 1011.5 |
| 20260509165954 | 60 | 53 | 1.0 | 4.0 | 0.00 | 0.00 | 0.00 | 74 | 1011.2 |
| 20260509164452 | 60 | 299 | 0.0 | 0.0 | 0.00 | 0.00 | 0.00 | 74 | 1011.1 |
| 20260509162951 | 60 | 299 | 0.0 | 2.0 | 0.00 | 0.00 | 0.00 | 73 | 1011.1 |
| 20260509161450 | 60 | 262 | 1.0 | 2.0 | 0.00 | 0.00 | 0.00 | 71 | 1011.0 |
| 20260509155956 | 60 | 328 | 0.0 | 3.0 | 0.00 | 0.00 | 0.00 | 73 | 1011.2 |
| 20260509154451 | 60 | 352 | 1.0 | 2.0 | 0.00 | 0.00 | 0.00 | 76 | 1011.7 |
| 20260509152951 | 60 | 283 | 1.0 | 3.0 | 0.00 | 0.00 | 0.00 | 76 | 1012.1 |
| 20260509151451 | 60 | 338 | 1.0 | 3.0 | 0.00 | 0.00 | 0.00 | 77 | 1012.0 |
| 20260509145953 | 59 | 288 | 4.0 | 7.0 | 0.00 | 0.00 | 0.00 | 77 | 1012.2 |
| 20260509144451 | 59 | 309 | 5.0 | 11.0 | 0.00 | 0.00 | 0.00 | 77 | 1012.0 |
| 20260509142951 | 60 | 297 | 5.0 | 10.0 | 0.00 | 0.00 | 0.00 | 77 | 1011.9 |
| 20260509141451 | 60 | 318 | 6.0 | 13.0 | 0.00 | 0.00 | 0.00 | 76 | 1011.8 |
| 20260509135954 | 60 | 319 | 7.0 | 16.0 | 0.00 | 0.00 | 0.00 | 76 | 1011.6 |
| 20260509134451 | 59 | 278 | 6.0 | 14.0 | 0.00 | 0.00 | 0.00 | 78 | 1011.5 |
| 20260509132950 | 59 | 301 | 5.0 | 10.0 | 0.00 | 0.00 | 0.00 | 79 | 1011.5 |
| 20260509131451 | 58 | 276 | 4.0 | 9.0 | 0.00 | 0.00 | 0.00 | 80 | 1011.4 |
| 20260509125954 | 58 | 324 | 4.0 | 11.0 | 0.00 | 0.00 | 0.00 | 81 | 1011.4 |
| 20260509124452 | 57 | 269 | 4.0 | 8.0 | 0.00 | 0.00 | 0.00 | 81 | 1011.3 |
| 20260509122950 | 57 | 262 | 4.0 | 9.0 | 0.00 | 0.00 | 0.00 | 82 | 1011.4 |
| 20260509121450 | 56 | 288 | 3.0 | 7.0 | 0.00 | 0.00 | 0.00 | 82 | 1011.5 |